| time (UTC) | temp F | wind direction | speed MPH | gust MPH | rain 1hr in | rain 24hr in | rain mn in | humidity % | barometer mb |
| 20260505004304 | 53 | 93 | 6.0 | 12.0 | 0.00 | 0.00 | 0.00 | 26 | 1017.3 |
| 20260505003804 | 53 | 114 | 6.0 | 15.0 | 0.00 | 0.00 | 0.00 | 26 | 1017.4 |
| 20260505003304 | 53 | 154 | 3.0 | 8.0 | 0.00 | 0.00 | 0.00 | 26 | 1017.4 |
| 20260505002804 | 53 | 103 | 5.0 | 10.0 | 0.00 | 0.00 | 0.00 | 25 | 1017.5 |
| 20260505002304 | 53 | 108 | 5.0 | 12.0 | 0.00 | 0.00 | 0.00 | 26 | 1017.3 |
| 20260505001804 | 53 | 122 | 4.0 | 13.0 | 0.00 | 0.00 | 0.00 | 26 | 1017.5 |
| 20260505001303 | 53 | 113 | 6.0 | 14.0 | 0.00 | 0.00 | 0.00 | 25 | 1017.3 |
| 20260505000803 | 53 | 122 | 6.0 | 13.0 | 0.00 | 0.00 | 0.00 | 25 | 1017.2 |
| 20260505000304 | 53 | 176 | 5.0 | 12.0 | 0.00 | 0.00 | 0.00 | 24 | 1017.1 |
| 20260504235804 | 54 | 107 | 6.0 | 14.0 | 0.00 | 0.00 | 0.00 | 25 | 1017.4 |
| 20260504235305 | 54 | 108 | 6.0 | 20.0 | 0.00 | 0.00 | 0.00 | 25 | 1017.2 |
| 20260504234804 | 54 | 114 | 5.0 | 12.0 | 0.00 | 0.00 | 0.00 | 24 | 1017.0 |
| 20260504234304 | 53 | 148 | 5.0 | 12.0 | 0.00 | 0.00 | 0.00 | 24 | 1017.1 |
| 20260504233805 | 54 | 141 | 6.0 | 21.0 | 0.00 | 0.00 | 0.00 | 25 | 1017.4 |
| 20260504233304 | 54 | 118 | 5.0 | 14.0 | 0.00 | 0.00 | 0.00 | 25 | 1017.3 |
| 20260504232804 | 54 | 134 | 6.0 | 12.0 | 0.00 | 0.00 | 0.00 | 24 | 1017.1 |
| 20260504232304 | 54 | 108 | 7.0 | 18.0 | 0.00 | 0.00 | 0.00 | 25 | 1017.3 |
| 20260504231803 | 54 | 104 | 8.0 | 15.0 | 0.00 | 0.00 | 0.00 | 25 | 1017.3 |
| 20260504231304 | 54 | 109 | 6.0 | 16.0 | 0.00 | 0.00 | 0.00 | 26 | 1017.3 |
| 20260504230804 | 54 | 104 | 5.0 | 15.0 | 0.00 | 0.00 | 0.00 | 25 | 1017.3 |
| 20260504225804 | 55 | 107 | 3.0 | 12.0 | 0.00 | 0.00 | 0.00 | 25 | 1017.1 |
| 20260504225304 | 56 | 93 | 6.0 | 14.0 | 0.00 | 0.00 | 0.00 | 24 | 1017.2 |
| 20260504224804 | 56 | 145 | 6.0 | 16.0 | 0.00 | 0.00 | 0.00 | 24 | 1017.3 |
| 20260504224304 | 55 | 127 | 6.0 | 15.0 | 0.00 | 0.00 | 0.00 | 25 | 1017.2 |
| 20260504223804 | 55 | 111 | 6.0 | 15.0 | 0.00 | 0.00 | 0.00 | 25 | 1017.2 |
| 20260504222803 | 55 | 118 | 6.0 | 15.0 | 0.00 | 0.00 | 0.00 | 25 | 1017.0 |
| 20260504221304 | 55 | 105 | 7.0 | 22.0 | 0.00 | 0.00 | 0.00 | 25 | 1017.0 |
| 20260504220804 | 55 | 67 | 6.0 | 16.0 | 0.00 | 0.00 | 0.00 | 25 | 1017.3 |
| 20260504215804 | 55 | 121 | 7.0 | 15.0 | 0.00 | 0.00 | 0.00 | 24 | 1017.3 |
| 20260504215305 | 55 | 104 | 7.0 | 15.0 | 0.00 | 0.00 | 0.00 | 25 | 1017.4 |
| 20260504214305 | 55 | 85 | 7.0 | 15.0 | 0.00 | 0.00 | 0.00 | 25 | 1017.5 |
| 20260504213803 | 55 | 114 | 7.0 | 15.0 | 0.00 | 0.00 | 0.00 | 25 | 1017.4 |
| 20260504213304 | 55 | 115 | 6.0 | 15.0 | 0.00 | 0.00 | 0.00 | 25 | 1017.6 |
| 20260504212305 | 55 | 127 | 7.0 | 23.0 | 0.00 | 0.00 | 0.00 | 25 | 1017.5 |
| 20260504211804 | 55 | 117 | 7.0 | 17.0 | 0.00 | 0.00 | 0.00 | 24 | 1017.5 |
| 20260504211304 | 55 | 104 | 6.0 | 16.0 | 0.00 | 0.00 | 0.00 | 25 | 1017.6 |
| 20260504210804 | 56 | 119 | 7.0 | 15.0 | 0.00 | 0.00 | 0.00 | 25 | 1017.7 |
| 20260504210303 | 55 | 122 | 6.0 | 14.0 | 0.00 | 0.00 | 0.00 | 26 | 1017.7 |
| 20260504205804 | 55 | 140 | 7.0 | 15.0 | 0.00 | 0.00 | 0.00 | 25 | 1017.7 |
| 20260504205304 | 55 | 104 | 7.0 | 17.0 | 0.00 | 0.00 | 0.00 | 25 | 1017.7 |
| 20260504204804 | 55 | 107 | 9.0 | 14.0 | 0.00 | 0.00 | 0.00 | 25 | 1017.6 |
| 20260504204304 | 55 | 61 | 5.0 | 16.0 | 0.00 | 0.00 | 0.00 | 25 | 1017.7 |
| 20260504203804 | 55 | 100 | 6.0 | 14.0 | 0.00 | 0.00 | 0.00 | 25 | 1017.8 |
| 20260504203304 | 55 | 113 | 6.0 | 17.0 | 0.00 | 0.00 | 0.00 | 25 | 1017.7 |
| 20260504202804 | 55 | 112 | 5.0 | 16.0 | 0.00 | 0.00 | 0.00 | 25 | 1017.8 |
| 20260504202305 | 55 | 121 | 5.0 | 17.0 | 0.00 | 0.00 | 0.00 | 26 | 1017.6 |
| 20260504200804 | 55 | 102 | 6.0 | 23.0 | 0.00 | 0.00 | 0.00 | 26 | 1017.8 |
| 20260504200304 | 55 | 91 | 9.0 | 22.0 | 0.00 | 0.00 | 0.00 | 25 | 1017.8 |
| 20260504195803 | 55 | 135 | 8.0 | 23.0 | 0.00 | 0.00 | 0.00 | 25 | 1017.7 |
| 20260504195304 | 55 | 91 | 7.0 | 15.0 | 0.00 | 0.00 | 0.00 | 25 | 1017.8 |
| 20260504194804 | 55 | 124 | 10.0 | 21.0 | 0.00 | 0.00 | 0.00 | 23 | 1017.8 |
| 20260504193804 | 55 | 68 | 7.0 | 17.0 | 0.00 | 0.00 | 0.00 | 28 | 1017.8 |
| 20260504192803 | 54 | 118 | 7.0 | 25.0 | 0.00 | 0.00 | 0.00 | 25 | 1017.7 |
| 20260504192304 | 54 | 101 | 6.0 | 21.0 | 0.00 | 0.00 | 0.00 | 28 | 1017.9 |
| 20260504191804 | 54 | 106 | 8.0 | 21.0 | 0.00 | 0.00 | 0.00 | 28 | 1018.0 |
| 20260504191304 | 54 | 122 | 8.0 | 22.0 | 0.00 | 0.00 | 0.00 | 26 | 1018.0 |
| 20260504190804 | 54 | 88 | 7.0 | 18.0 | 0.00 | 0.00 | 0.00 | 27 | 1017.9 |
| 20260504185805 | 55 | 119 | 6.0 | 16.0 | 0.00 | 0.00 | 0.00 | 27 | 1018.1 |
| 20260504185305 | 55 | 116 | 9.0 | 20.0 | 0.00 | 0.00 | 0.00 | 28 | 1018.0 |
| 20260504184804 | 55 | 121 | 6.0 | 16.0 | 0.00 | 0.00 | 0.00 | 27 | 1017.9 |
| 20260504184304 | 55 | 120 | 5.0 | 15.0 | 0.00 | 0.00 | 0.00 | 29 | 1018.0 |
| 20260504183804 | 54 | 112 | 9.0 | 21.0 | 0.00 | 0.00 | 0.00 | 27 | 1018.0 |
| 20260504183304 | 54 | 112 | 7.0 | 16.0 | 0.00 | 0.00 | 0.00 | 29 | 1018.0 |
| 20260504182804 | 54 | 105 | 7.0 | 14.0 | 0.00 | 0.00 | 0.00 | 29 | 1018.2 |
| 20260504182304 | 54 | 38 | 6.0 | 17.0 | 0.00 | 0.00 | 0.00 | 29 | 1018.1 |
| 20260504181804 | 54 | 101 | 7.0 | 18.0 | 0.00 | 0.00 | 0.00 | 28 | 1018.2 |
| 20260504181304 | 53 | 66 | 5.0 | 21.0 | 0.00 | 0.00 | 0.00 | 29 | 1018.3 |
| 20260504180803 | 54 | 82 | 6.0 | 17.0 | 0.00 | 0.00 | 0.00 | 30 | 1018.1 |
| 20260504180306 | 53 | 42 | 6.0 | 21.0 | 0.00 | 0.00 | 0.00 | 30 | 1018.4 |
| 20260504175804 | 54 | 116 | 8.0 | 24.0 | 0.00 | 0.00 | 0.00 | 30 | 1018.2 |
| 20260504175304 | 55 | 103 | 6.0 | 17.0 | 0.00 | 0.00 | 0.00 | 28 | 1018.6 |
| 20260504174804 | 54 | 110 | 7.0 | 21.0 | 0.00 | 0.00 | 0.00 | 30 | 1018.5 |
| 20260504174304 | 55 | 84 | 8.0 | 17.0 | 0.00 | 0.00 | 0.00 | 31 | 1018.4 |
| 20260504173304 | 55 | 114 | 5.0 | 14.0 | 0.00 | 0.00 | 0.00 | 31 | 1018.4 |
| 20260504172804 | 55 | 94 | 6.0 | 18.0 | 0.00 | 0.00 | 0.00 | 33 | 1018.5 |
| 20260504172304 | 54 | 117 | 5.0 | 18.0 | 0.00 | 0.00 | 0.00 | 36 | 1018.6 |
| 20260504171804 | 54 | 126 | 8.0 | 18.0 | 0.00 | 0.00 | 0.00 | 34 | 1018.4 |
| 20260504170804 | 52 | 114 | 6.0 | 22.0 | 0.00 | 0.00 | 0.00 | 36 | 1018.4 |
| 20260504160304 | 49 | 118 | 5.0 | 12.0 | 0.00 | 0.00 | 0.00 | 42 | 1018.8 |
| 20260504150804 | 45 | 99 | 5.0 | 8.0 | 0.00 | 0.00 | 0.00 | 50 | 1018.5 |
| 20260504150304 | 44 | 90 | 2.0 | 5.0 | 0.00 | 0.00 | 0.00 | 52 | 1018.6 |
| 20260504140304 | 42 | 101 | 2.0 | 6.0 | 0.00 | 0.00 | 0.00 | 52 | 1018.1 |
| 20260504130803 | 41 | 109 | 3.0 | 8.0 | 0.00 | 0.00 | 0.00 | 57 | 1017.9 |
| 20260504130305 | 41 | 94 | 2.0 | 7.0 | 0.00 | 0.00 | 0.00 | 57 | 1017.9 |
| 20260504120304 | 40 | 90 | 2.0 | 6.0 | 0.00 | 0.00 | 0.00 | 59 | 1018.1 |
| 20260504110304 | 42 | 100 | 2.0 | 6.0 | 0.00 | 0.00 | 0.00 | 55 | 1017.8 |
| 20260504100303 | 44 | 26 | 1.0 | 2.0 | 0.00 | 0.00 | 0.00 | 59 | 1017.5 |
| 20260504081304 | 48 | 102 | 1.0 | 1.0 | 0.00 | 0.00 | 0.00 | 56 | 1017.3 |
| 20260504080804 | 48 | 95 | 1.0 | 1.0 | 0.00 | 0.00 | 0.00 | 57 | 1017.4 |
| 20260504070304 | 48 | 88 | 1.0 | 6.0 | 0.00 | 0.00 | 0.00 | 58 | 1017.6 |
| 20260504050304 | 52 | 122 | 4.0 | 13.0 | 0.00 | 0.00 | 0.00 | 45 | 1016.5 |
| 20260504045804 | 52 | 103 | 5.0 | 10.0 | 0.00 | 0.00 | 0.00 | 45 | 1016.7 |
| 20260504045304 | 52 | 134 | 5.0 | 9.0 | 0.00 | 0.00 | 0.00 | 45 | 1016.7 |
| 20260504044804 | 52 | 116 | 6.0 | 15.0 | 0.00 | 0.00 | 0.00 | 44 | 1016.3 |
| 20260504044304 | 53 | 137 | 5.0 | 10.0 | 0.00 | 0.00 | 0.00 | 44 | 1016.3 |
| 20260504043804 | 53 | 116 | 6.0 | 16.0 | 0.00 | 0.00 | 0.00 | 43 | 1016.5 |
| 20260504043304 | 53 | 126 | 6.0 | 14.0 | 0.00 | 0.00 | 0.00 | 42 | 1016.3 |
| 20260504042804 | 53 | 121 | 5.0 | 12.0 | 0.00 | 0.00 | 0.00 | 42 | 1016.5 |
| 20260504041805 | 53 | 91 | 6.0 | 13.0 | 0.00 | 0.00 | 0.00 | 42 | 1016.1 |
| 20260504041305 | 53 | 99 | 6.0 | 12.0 | 0.00 | 0.00 | 0.00 | 41 | 1016.0 |
| 20260504040304 | 54 | 122 | 5.0 | 12.0 | 0.00 | 0.00 | 0.00 | 38 | 1015.7 |
| 20260504035804 | 54 | 130 | 5.0 | 15.0 | 0.00 | 0.00 | 0.00 | 38 | 1015.5 |
| 20260504035305 | 54 | 111 | 5.0 | 13.0 | 0.00 | 0.00 | 0.00 | 37 | 1015.5 |
| 20260504034804 | 54 | 120 | 5.0 | 12.0 | 0.00 | 0.00 | 0.00 | 37 | 1015.4 |
| 20260504034305 | 54 | 89 | 7.0 | 17.0 | 0.00 | 0.00 | 0.00 | 37 | 1015.2 |
| 20260504033804 | 55 | 125 | 4.0 | 9.0 | 0.00 | 0.00 | 0.00 | 37 | 1015.3 |
| 20260504033304 | 55 | 123 | 5.0 | 13.0 | 0.00 | 0.00 | 0.00 | 37 | 1015.2 |
| 20260504032804 | 55 | 190 | 4.0 | 16.0 | 0.00 | 0.00 | 0.00 | 37 | 1015.1 |
| 20260504032304 | 55 | 156 | 6.0 | 15.0 | 0.00 | 0.00 | 0.00 | 36 | 1014.5 |
| 20260504031804 | 55 | 132 | 3.0 | 12.0 | 0.00 | 0.00 | 0.00 | 36 | 1014.5 |
| 20260504031304 | 56 | 125 | 7.0 | 15.0 | 0.00 | 0.00 | 0.00 | 36 | 1014.5 |
| 20260504030304 | 56 | 141 | 5.0 | 16.0 | 0.00 | 0.00 | 0.00 | 35 | 1014.4 |
| 20260504025803 | 56 | 128 | 3.0 | 9.0 | 0.00 | 0.00 | 0.00 | 36 | 1014.2 |
| 20260504025304 | 57 | 100 | 2.0 | 8.0 | 0.00 | 0.00 | 0.00 | 36 | 1014.2 |
| 20260504024804 | 57 | 123 | 3.0 | 10.0 | 0.00 | 0.00 | 0.00 | 36 | 1014.0 |
| 20260504024304 | 57 | 104 | 3.0 | 7.0 | 0.00 | 0.00 | 0.00 | 36 | 1013.9 |
| 20260504023304 | 57 | 116 | 3.0 | 7.0 | 0.00 | 0.00 | 0.00 | 36 | 1013.8 |
| 20260504022803 | 58 | 132 | 3.0 | 9.0 | 0.00 | 0.00 | 0.00 | 35 | 1013.6 |
| 20260504022305 | 58 | 122 | 3.0 | 10.0 | 0.00 | 0.00 | 0.00 | 35 | 1013.5 |
| 20260504021305 | 58 | 139 | 6.0 | 12.0 | 0.00 | 0.00 | 0.00 | 34 | 1013.4 |
| 20260504020304 | 59 | 119 | 6.0 | 14.0 | 0.00 | 0.00 | 0.00 | 34 | 1013.2 |
| 20260504015804 | 59 | 135 | 6.0 | 14.0 | 0.00 | 0.00 | 0.00 | 34 | 1013.2 |
| 20260504014804 | 60 | 119 | 3.0 | 10.0 | 0.00 | 0.00 | 0.00 | 34 | 1012.8 |
| 20260504014305 | 60 | 110 | 5.0 | 13.0 | 0.00 | 0.00 | 0.00 | 33 | 1012.9 |
| 20260504013303 | 62 | 103 | 6.0 | 15.0 | 0.00 | 0.00 | 0.00 | 32 | 1012.5 |
| 20260504012304 | 62 | 115 | 6.0 | 16.0 | 0.00 | 0.00 | 0.00 | 32 | 1012.4 |
| 20260504011804 | 63 | 114 | 6.0 | 13.0 | 0.00 | 0.00 | 0.00 | 32 | 1012.3 |
| 20260504011304 | 63 | 91 | 7.0 | 16.0 | 0.00 | 0.00 | 0.00 | 32 | 1012.2 |
| 20260504010804 | 64 | 110 | 6.0 | 16.0 | 0.00 | 0.00 | 0.00 | 32 | 1012.0 |
| 20260504010304 | 64 | 132 | 5.0 | 13.0 | 0.00 | 0.00 | 0.00 | 31 | 1012.0 |
| 20260504005305 | 64 | 101 | 7.0 | 16.0 | 0.00 | 0.00 | 0.00 | 31 | 1012.1 |
| 20260504004804 | 65 | 119 | 6.0 | 15.0 | 0.00 | 0.00 | 0.00 | 31 | 1011.9 |